www.pogodaiklimat.ru

Погода и климат >> Архив погоды >> Ирак >> Хадита


ПОГОДА в Хадите

  • Прогноз погоды в Хадите
  • Монитор погоды в Хадите

АРХИВ ПОГОДЫ в Хадите

Время (UTC), дата Ветер
(напр.,м/с)
 
Видим.   Явления Облачность Т
(С)
Тd
(С)
f
(%)
Тe
(С)
Тes
(С)
Комфортность P
(гПа)
Po
(гПа)
Тmin
(С)
Tmax
(С)
R
(мм)
R24
(мм)
S
(см)
06 10.09 З 3 10 км ясно +29.6 +12.6 35 +31 +37 жарко 1006.1 990.3 +23.0
09 10.09 З 2 10 км ясно +35.1 +14.3 29 +36 +53 опасность
солнечного
удара
1005.9 990.4
12 10.09 З 4 10 км 4/4 900 м
[Cu med, cong]
+37.7 +14.8 26 +39 +43 очень
душно
1005.8 990.4
15 10.09 З 2 10 км ясно +36.2 +10.3 21 +35 +35 очень
жарко
1003.9 988.5
18 10.09 З 2 10 км ясно +32.4 +9.1 24 +31 +31 жарко 1006.0 990.4 +38.0
21 10.09 З 3 10 км ясно +28.5 +12.2 36 +30 +30 жарко 1006.2 990.4
00 11.09 З 2 10 км ясно +23.5 +7.2 35 +24 +24 комфорт 1006.4 990.3
09 11.09 З 1 10 км ясно +35.0 +13.9 28 +36 +55 опасность
солнечного
удара
1007.8 992.3
12 11.09 З 1 10 км ясно +38.0 +11.4 20 +37 +48 очень
жарко
1017.9 1002.4
00 12.09 З 1 10 км ясно +23.8 +7.9 36 +24 +24 комфорт 1008.4 992.3
03 12.09 З 1 10 км ясно +24.8 +6.8 32 +25 +25 комфорт 1008.4 992.3
06 12.09 СЗ 4 10 км ясно +29.9 +13.6 37 +31 +37 жарко 1010.2 994.4 +22.2
09 12.09 З 4 10 км ясно +35.6 +12.9 26 +36 +47 очень
жарко
1009.9 994.4
12 12.09 С 3 10 км ясно +37.7 +10.8 20 +37 +44 очень
жарко
1007.8 992.4
15 12.09 С 3 10 км ясно +36.6 +12.3 23 +36 +36 очень
жарко
1007.9 992.5
21 12.09 З 1 10 км ясно +30.6 +13.7 36 +32 +32 жарко 1008.1 992.3 +38.0
00 13.09 З 1 10 км ясно +24.4 +9.8 40 +25 +25 комфорт 1006.4 990.3
03 13.09 З 3 10 км ясно +23.3 +10.2 43 +25 +25 комфорт 1008.4 992.3
06 13.09 З 4 10 км ясно +30.0 +13.3 36 +31 +36 жарко 1008.1 992.3 +22.6
12 13.09 СЗ 3 10 км ясно +39.0 +14.6 24 +40 +47 очень
душно
1007.8 992.5
15 13.09 СЗ 2 10 км ясно +36.0 +14.5 28 +37 +37 душно 1005.0 989.6
18 13.09 З 2 10 км ясно +32.8 +16.0 37 +36 +36 очень
душно
1008.1 992.5 +39.4
21 13.09 штиль 0 10 км ясно +29.6 +14.9 41 +32 +32 душно 1008.1 992.3
03 14.09 З 2 10 км ясно +25.0 +12.1 45 +27 +27 жарко 1008.3 992.2
06 14.09 штиль 0 10 км ясно +30.6 +14.1 37 +32 +42 жарко 1008.1 992.3 +22.6
09 14.09 В 2 10 км ясно +38.8 +15.4 25 +40 +56 опасность
солнечного
удара
1007.8 992.5
12 14.09 В 2 10 км ясно +40.6 +15.5 23 +42 +51 опасность
перегрева
1005.7 990.5
15 14.09 В 2 10 км ясно +37.0 +18.4 34 +41 +41 опасность
перегрева
1005.8 990.4
18 14.09 В 2 10 км ясно +33.6 +13.4 30 +35 +35 душно 1006.0 990.4 +40.9
21 14.09 штиль 0 10 км ясно +30.3 +13.9 37 +32 +32 жарко 1006.1 990.4
00 15.09 штиль 0 10 км ясно +28.1 +16.9 51 +32 +32 душно 1004.2 988.4
03 15.09 З 2 10 км 3/0
[Ac lent]
+24.2 +11.0 43 +25 +25 комфорт 1006.4 990.3
06 15.09 З 1 10 км 1/0
[Ac lent]
+31.0 +16.8 43 +35 +42 очень
душно
1006.0 990.3 +23.6
09 15.09 Ю 1 10 км ясно +37.8 +16.8 29 +40 +59 опасность
солнечного
удара
1005.8 990.4
12 15.09 штиль 0 10 км 5/0
[Ac trans]
+41.6 +14.1 20 +42 +50 опасность
перегрева
1001.6 986.5
15 15.09 З 2 10 км ясно +39.8 +11.9 19 +39 +39 очень
жарко
1001.7 986.5
18 15.09 З 3 10 км ясно +34.6 +13.7 28 +35 +35 очень
жарко
1001.9 986.4 +42.0
21 15.09 З 2 10 км ясно +30.2 +9.7 28 +30 +30 жарко 1004.1 988.4
00 16.09 З 2 10 км ясно +28.2 +7.4 27 +28 +28 жарко 1004.2 988.4
03 16.09 З 2 10 км ясно +24.4 +7.2 33 +25 +25 комфорт 1006.4 990.3
06 16.09 СЗ 4 8000 м пыль ясно +27.6 +14.9 46 +30 +35 жарко 1012.3 996.3 +23.4
09 16.09 С 2 10 км ясно +34.7 +15.5 32 +37 +52 опасность
солнечного
удара
1012.0 996.4
12 16.09 штиль 0 10 км ясно +37.7 +16.7 29 +40 +52 опасность
солнечного
удара
1009.9 994.5
15 16.09 штиль 0 10 км ясно +35.2 +12.5 25 +35 +35 очень
жарко
1009.9 994.4
21 16.09 З 1 10 км ясно +28.2 +17.1 51 +32 +32 душно 1010.2 994.3

 

Местоположение метеостанции Хадита (Ирак): широта 34.07 долгота 42.37 высота над уровнем моря 140 м.

В архиве по умолчанию представлена погода в Хадите за последнюю неделю. Архивные данные за месяц целиком и за предыдущие месяцы, начиная с января 2011 года, Вы можете получить, выбрав интересующий диапазон дат из раскрывающегося списка и нажав кнопку "Ввод!".


*Определитесь, кто Вы:
робот инопланетянин человек

Внимание! Время в таблицах - всемирное. Для получения местного времени необходимо прибавить поправку, которая равна 3 ч.

Смотрите также архив погоды в соседних городах и на ближайших метеорологических станциях:

Погода в Ане (Ирак) (59 км)
Погода в Эр-Рамади (Ирак) (112 км)
Погода в Аль-Каиме (Ирак) (129 км)
Погода в Тикрите (Ирак) (134 км)
Погода в Хите (Ирак) (137 км)
Погода в Абу-Камале (Сирия) (139 км)
Погода в Бейджи (Ирак) (140 км)
Погода в Багдаде (Ирак) (196 км)
Погода в Эль-Халисе (Ирак) (201 км)
Погода в Махмуре (Ирак) (218 км)

Пояснения к столбцам:

Ветер - указаны скорость ветра в м/с - средняя за 10 мин, порывы в срок и между сроками (в фигурных скобках) и направление, откуда дует ветер: С - северный, СВ - северо-восточный, В - восточный, ЮВ - юго-восточный, Ю - южный, ЮЗ - юго-западный, З - западный, СЗ - северо-западный.
Видимость - горизонтальная дальность видимости в метрах или километрах. При видимости от 1 до 10 км при отсутствии осадков обычно наблюдается дымка, при ухудшении видимости до 1 км и менее - туман. В сухую погоду видимость может ухудшаться дымом, пылью или мглою.
Явления - указаны атмосферные явления, наблюдавшиеся в срок или в последний час перед сроком; фигурными скобками обозначены явления, наблюдавшиеся между сроками (за 1-3 часа до срока); квадратными скобками обозначены град или гололедные отложения с указанием их диаметра в мм.
Облачность - указаны через наклонную черту общая и нижняя облачность в баллах и высота нижней границы облаков в метрах; квадратными скобками обозначены формы облаков: Ci - перистые, Cs - перисто-слоистые, Cc - перисто-кучевые, Ac - высококучевые, As - высокослоистые, Sc - слоисто-кучевые, Ns - слоисто-дождевые, Cu - кучевые, Cb - кучево-дождевые. Подробнее классификацию облаков см. в Атласе облаков (PDF).
T - Температура воздуха - температура, измеренная на высоте 2 м над землей.
Td - Температура точки росы - температура, при понижении до которой содержащийся в воздухе водяной пар достигнет насыщения.
f - Относительная влажность воздуха - влажноcть воздуха, измеренная на высоте 2 м над землей.
Te - Эффективная температура - температура, которую ощущает одетый по сезону человек в тени. Характеристика душности погоды. При расчете учитывается влияние влажности воздуха и скорости ветра на теплоощущения человека.
Tes - Эффективная температура на солнце - температура, которую ощущает человек, с поправкой на солнечный нагрев. Характеристика знойности погоды. Зависит от высоты солнца над горизонтом, облачности и скорости ветра. Ночью, в пасмурную погоду, а также при ветре 12 м/с и более поправка равна нулю.
P - Атмосферное давление - приведенное к уровню моря атмосферное давление.
Po - Атмосферное давление - измеренное на уровне метеостанции атмосферное давление.
Tmin - Минимальная температура - минимум температуры воздуха на высоте 2 м над землей.
Tmax - Максимальная температура - максимум температуры воздуха на высоте 2 м над землей.
R - Количество осадков - Количество выпавших осадков за период времени, мм. При наведении курсора мыши на число - период времени, за который выпало указанное количество осадков.
R24 - Количество осадков - Количество выпавших осадков за 24 часа, мм.
S - Снежный покров - Высота снежного покрова, см. При наведении курсора мыши на число - состояние снежного покрова и степень покрытия местности в баллах.